Theta_e
329 320 312 311 319 316 309 303 295 293 296 290 287 290 292 297 299 300 301 304 302 306 308 309 309 309 307 305 310 314 314 303 301 298 295 309 330 335 335 336 337 336 335 335 335 335 335 340 340 339 340 340 342 343 344 344 343 342 342 341 340 341 341 342 343 343 344 344 345 346 346 346 345 344 344 343 343 343 343 343 342 341 341 340 340 340 341 341 341 341 341 343 343 343 343 343 343
326 321 313 318 315 308 304 299 291 289 287 287 289 289 295 297 299 299 299 301 303 306 307 315 316 317 318 317 317 313 312 317 316 316 325 330 334 334 336 337 337 335 335 335 334 332 332 336 341 340 339 340 341 342 345 345 344 342 342 341 340 340 340 340 341 344 345 346 346 346 346 345 345 345 344 343 343 342 343 345 345 345 344 344 343 342 343 343 342 342 342 343 343 343 342 342 342
326 318 313 312 309 307 303 300 295 287 287 285 283 290 293 296 298 296 301 305 306 307 312 314 313 313 312 313 311 308 303 321 325 327 327 333 329 331 336 337 337 337 336 335 334 333 332 335 340 340 339 340 341 344 345 346 346 342 342 341 341 340 340 340 340 345 346 345 345 344 344 344 344 344 345 344 343 342 342 343 343 343 344 343 344 344 343 343 343 343 343 343 343 342 342 341 341
322 315 315 308 307 301 296 293 288 288 289 284 284 290 291 293 296 299 304 305 305 303 304 305 306 309 313 311 313 317 315 318 324 327 326 329 331 334 336 337 337 337 336 336 334 333 334 338 342 341 340 340 344 346 345 345 345 344 342 342 341 341 341 341 341 341 342 343 343 343 342 342 342 342 344 344 344 344 344 344 344 343 344 343 343 343 343 343 343 343 343 343 342 341 342 342 341
314 318 315 308 304 302 296 293 290 288 287 285 287 288 294 296 300 302 305 304 304 305 305 304 306 313 316 315 315 307 311 320 325 326 325 329 336 336 336 337 337 336 335 335 336 334 333 340 341 342 340 340 340 346 345 344 344 345 343 342 341 341 341 341 340 339 340 340 341 341 341 341 340 344 344 344 343 343 342 342 342 343 343 343 343 343 343 343 343 343 343 342 342 341 341 341 340
311 312 315 311 306 306 298 293 290 290 291 289 289 294 297 300 303 303 304 304 304 303 303 303 307 305 314 316 316 312 321 317 322 325 327 330 335 337 337 336 336 335 335 335 335 333 334 339 340 342 340 340 339 342 344 344 345 345 345 343 341 340 340 340 339 339 339 342 342 342 342 341 341 341 341 341 342 341 343 344 343 343 342 342 342 342 342 343 343 343 342 341 341 340 340 340 339
312 308 306 302 302 301 292 289 286 289 294 292 290 297 300 300 304 303 303 305 306 306 306 310 317 315 313 315 319 322 325 324 324 325 331 333 336 336 336 336 335 334 335 335 334 334 334 339 342 342 342 340 340 341 343 344 345 345 345 343 341 341 340 339 338 338 338 338 338 340 341 341 341 341 341 341 340 340 342 343 343 342 342 342 342 342 342 343 343 342 342 342 342 341 340 338 339
314 307 303 296 293 295 293 289 290 288 292 293 294 301 301 302 303 304 303 302 303 303 308 311 308 305 305 316 311 320 326 327 326 330 334 335 335 335 336 336 334 334 335 335 335 334 339 339 342 342 342 341 341 341 343 343 344 344 345 343 341 341 340 339 338 337 336 341 341 341 341 341 340 340 340 341 340 340 340 341 341 341 341 342 342 341 341 342 342 341 341 341 340 339 338 338 338
310 309 304 298 294 292 288 291 291 292 290 298 301 303 307 304 304 304 301 303 302 304 304 304 305 304 307 316 314 319 323 327 329 332 334 334 334 334 336 335 334 333 335 336 335 334 334 338 340 342 342 342 341 341 341 342 343 344 344 344 342 340 340 339 337 337 337 337 340 340 340 340 340 340 340 340 340 340 341 340 341 341 341 341 341 341 341 341 341 341 341 340 338 337 337 336 336
308 305 297 295 291 292 287 287 290 290 292 298 300 303 303 302 302 303 301 302 304 304 305 304 304 305 312 315 316 319 320 327 330 331 333 334 334 335 335 335 335 334 335 335 336 336 335 340 339 340 341 342 342 341 341 341 342 343 343 343 342 341 340 339 338 336 337 337 338 340 340 340 340 340 340 340 341 341 341 341 341 341 340 340 341 340 341 341 340 340 341 338 337 337 337 338 335
301 302 301 297 290 288 289 287 287 290 295 297 301 303 304 301 301 299 303 303 301 304 303 312 313 314 314 313 312 316 326 327 329 328 332 333 333 334 335 335 336 336 335 335 336 336 336 335 340 338 340 340 341 341 341 342 342 342 343 343 342 341 340 339 338 336 336 339 340 340 339 339 338 338 338 338 339 339 340 339 339 339 340 340 340 340 340 339 339 339 339 337 336 336 336 337 337
300 299 300 289 288 288 288 289 290 290 291 296 300 301 300 300 299 299 299 301 300 301 303 308 310 314 311 309 312 321 325 326 328 330 330 330 332 335 335 335 336 336 336 336 336 336 335 335 335 339 337 338 338 340 340 341 342 342 342 342 342 341 340 339 338 337 338 339 339 339 338 338 338 338 338 339 340 339 339 338 339 339 339 339 339 339 339 338 338 338 338 336 335 335 336 335 335
298 297 292 291 287 289 288 290 289 291 291 293 298 300 299 299 299 299 299 300 299 301 303 303 316 313 307 308 314 322 323 325 327 328 328 329 333 336 336 335 335 335 336 337 337 335 335 334 335 335 333 334 335 336 336 338 340 342 342 342 342 342 340 339 338 340 340 339 341 340 339 339 339 339 338 338 338 338 338 338 338 338 338 338 338 339 338 338 338 337 336 335 335 335 335 335 334
302 299 296 293 289 288 289 288 288 290 289 293 294 298 300 299 299 300 301 300 299 302 304 310 314 316 312 317 318 318 322 326 327 328 328 330 335 335 334 334 334 335 337 337 337 338 337 335 334 332 332 333 331 332 332 335 337 340 341 341 341 341 340 340 340 339 338 338 339 339 339 339 339 338 338 337 337 337 337 338 338 337 337 338 338 338 338 338 337 337 335 334 335 335 334 333 333
305 302 296 292 290 289 290 291 290 289 289 290 297 298 299 300 299 299 303 300 300 303 304 308 315 311 308 315 314 319 323 326 327 328 327 329 333 335 333 333 333 335 337 337 338 338 338 337 334 332 330 331 329 328 328 332 333 335 337 337 338 339 338 336 335 334 334 335 335 335 335 334 334 334 333 334 334 333 333 332 335 336 337 337 337 337 337 337 336 336 335 334 334 334 334 333 332
304 300 296 295 289 290 290 291 290 289 290 292 296 297 297 299 299 302 302 303 301 305 304 307 309 304 309 316 317 324 326 327 328 327 326 328 331 333 332 332 333 334 335 336 337 338 338 338 336 334 334 331 328 328 327 327 330 331 334 336 336 335 334 332 331 330 328 328 329 329 329 328 328 327 328 328 329 331 331 330 332 336 336 336 336 337 336 336 336 335 334 334 333 332 331 330 330
302 299 297 288 289 289 292 292 291 290 290 293 295 298 298 297 299 300 300 304 304 305 312 313 308 317 317 316 317 327 327 327 326 326 325 325 330 330 331 331 332 332 333 335 336 337 338 338 337 336 335 332 330 328 327 326 329 329 330 330 330 330 330 329 328 324 322 322 323 323 324 324 323 324 324 324 324 325 324 326 330 334 336 336 336 336 336 335 335 334 333 332 330 329 326 326 325
301 297 292 290 288 290 294 294 293 293 294 295 296 298 297 296 298 301 304 305 305 308 311 310 318 317 317 318 326 327 327 326 326 324 323 323 327 328 329 330 331 330 331 333 335 336 336 337 336 336 335 333 331 331 330 328 325 328 326 327 326 326 326 324 322 321 325 320 322 323 323 323 322 322 323 327 322 323 324 324 326 331 334 334 334 334 334 333 333 332 331 330 329 329 324 314 314
297 292 292 293 291 293 296 294 294 295 295 297 297 295 299 298 298 299 300 301 303 304 307 312 313 316 320 322 325 326 326 325 325 324 322 322 325 326 328 329 330 331 330 332 333 334 335 336 336 335 334 332 332 331 330 327 325 324 324 325 325 325 325 323 322 321 318 319 318 320 320 322 322 322 322 323 321 321 323 323 326 329 331 331 332 332 332 332 332 332 331 330 328 325 312 311 311
296 294 291 292 295 294 293 293 294 295 296 296 297 296 298 298 298 299 300 300 300 302 308 309 310 313 317 320 323 324 325 324 324 324 322 322 324 326 327 327 329 330 331 331 331 333 335 335 335 334 333 332 332 332 330 328 326 325 323 324 324 323 323 323 321 320 319 319 319 319 319 321 321 321 324 324 323 320 321 321 323 324 325 326 325 326 329 329 329 329 328 326 320 314 312 312 312
297 295 293 295 296 294 296 294 294 293 296 298 298 296 297 297 298 299 298 299 298 299 310 311 312 315 318 321 322 323 323 323 323 323 322 321 323 326 327 328 329 329 331 331 331 332 334 335 335 334 333 333 332 332 331 329 327 325 324 323 323 323 323 323 323 321 319 320 319 320 321 319 321 320 320 320 319 318 317 319 319 320 319 317 319 316 317 316 316 314 314 315 313 313 313 313 313
298 294 296 297 294 295 294 294 295 293 296 297 295 298 298 298 299 297 301 298 298 301 305 311 317 319 319 320 321 322 322 322 322 322 322 322 322 323 325 325 324 328 328 329 330 332 333 335 334 334 334 333 332 332 331 329 328 326 324 324 323 323 323 323 322 323 321 320 319 320 321 321 320 320 319 318 318 318 317 317 317 317 315 316 314 315 312 313 310 311 312 313 314 312 312 312 313
294 293 294 296 294 296 296 296 295 293 297 296 295 298 297 298 297 296 301 300 300 298 305 315 320 321 322 323 322 321 321 321 322 322 322 321 322 323 324 326 326 327 327 329 330 332 334 335 334 335 334 334 333 332 330 329 328 328 326 325 324 323 323 323 323 322 323 321 319 320 321 321 320 320 319 318 318 317 318 316 316 316 316 315 313 315 312 311 311 310 312 315 313 314 313 311 312
297 293 294 295 295 295 296 297 294 292 296 298 297 296 298 296 296 296 298 296 296 297 305 318 321 322 323 321 322 321 321 321 321 323 323 323 323 323 324 324 326 327 326 328 328 331 332 334 335 335 335 334 333 332 330 329 329 328 327 324 325 323 323 323 324 323 323 322 320 321 321 322 321 319 319 318 318 317 317 317 316 315 314 314 315 314 313 310 310 310 312 312 312 312 312 311 311
296 295 296 295 295 293 294 293 294 294 294 294 295 296 296 296 296 295 297 298 298 298 304 320 321 321 321 321 321 321 321 321 321 322 323 323 323 323 323 323 324 325 326 327 328 329 331 333 334 335 335 334 334 332 329 329 329 328 326 325 325 323 324 324 325 324 323 322 320 321 320 321 320 320 319 319 318 318 316 317 316 316 316 314 315 312 313 313 310 311 311 311 309 309 309 310 310
300 302 297 293 293 294 294 295 294 294 295 295 296 294 294 294 296 296 298 298 298 302 307 320 320 320 320 320 321 321 321 321 322 321 323 323 322 322 322 323 324 324 327 328 327 328 330 332 333 334 335 335 334 332 330 328 329 328 327 325 325 323 324 325 324 324 324 323 320 320 320 321 320 320 319 317 318 318 316 316 317 316 315 313 313 315 312 311 311 309 309 309 309 308 310 312 309
299 296 293 293 293 294 295 295 295 294 296 294 296 293 294 294 295 294 296 296 300 301 307 319 319 319 319 320 321 321 321 321 322 323 322 322 322 322 323 323 324 325 326 327 328 329 328 330 332 334 335 333 334 333 331 329 330 329 327 327 325 324 325 325 324 325 324 323 321 320 319 319 320 320 320 318 318 318 316 315 316 317 314 311 313 315 313 313 312 312 312 310 310 310 311 309 309
297 296 296 294 292 292 293 294 293 294 296 294 296 294 294 293 296 293 295 296 304 303 307 317 318 318 319 319 320 321 321 322 322 322 321 321 322 322 323 323 324 324 324 326 328 329 328 329 331 333 335 334 333 333 331 330 330 330 328 328 326 326 325 325 325 325 324 324 322 321 320 319 319 319 319 318 318 317 316 314 315 315 316 312 313 313 313 312 312 312 310 310 310 311 311 308 307
298 298 295 293 293 293 293 293 294 294 295 294 294 294 293 293 293 297 293 300 303 305 307 315 316 317 318 319 319 319 320 321 321 321 322 323 324 324 323 324 325 324 325 327 327 327 328 329 330 331 334 333 333 333 332 331 332 332 330 328 327 327 326 325 325 325 325 324 323 322 321 320 318 319 319 319 317 317 316 315 313 315 316 314 313 312 313 311 309 308 308 309 309 308 309 308 308
296 298 296 294 291 289 293 293 293 293 294 293 296 287 289 294 297 296 293 300 301 304 305 310 313 315 317 318 318 318 319 319 320 321 323 323 324 324 324 324 325 325 325 326 327 327 329 330 331 331 332 332 332 333 332 332 332 332 331 330 327 327 326 325 324 324 324 324 324 322 322 321 319 319 319 317 317 316 316 315 315 314 314 313 313 312 311 311 310 308 308 308 310 308 307 307 307
292 293 295 289 289 287 292 294 292 292 294 293 294 288 288 292 296 296 294 300 303 303 304 306 308 312 314 316 316 317 318 319 320 322 322 323 324 325 324 325 324 325 324 325 326 327 327 329 330 331 329 331 330 331 331 332 331 332 331 331 328 327 326 326 325 324 324 324 324 323 322 322 321 320 318 318 316 316 316 315 314 315 314 313 311 311 312 311 311 311 307 310 305 306 306 307 308
292 290 288 289 288 288 292 294 293 293 293 293 293 287 290 292 293 291 294 298 302 301 303 304 305 307 310 313 315 315 316 318 319 321 322 323 324 324 325 324 325 325 325 325 326 327 327 329 329 331 329 330 330 330 331 332 332 332 332 328 329 327 326 326 325 325 324 324 323 322 323 322 321 321 319 317 316 315 315 315 316 315 313 312 312 310 310 311 310 308 308 310 307 306 304 306 303
291 290 288 287 287 288 290 293 292 294 292 294 292 288 288 291 289 290 292 298 298 299 301 302 303 304 306 310 313 314 314 314 316 320 321 322 324 325 325 325 325 325 325 326 326 326 327 328 327 329 329 329 329 329 329 330 333 333 332 331 329 327 327 326 325 324 324 324 323 323 322 322 321 321 320 318 317 315 315 315 315 314 313 312 311 310 310 311 310 310 307 307 310 308 305 304 303
287 288 286 289 288 288 287 291 293 293 292 291 291 289 288 289 289 290 294 295 295 296 297 300 300 301 303 306 309 310 311 313 315 317 320 322 323 324 325 323 325 325 325 325 326 327 327 327 328 329 329 329 329 329 329 330 332 333 333 332 329 328 327 327 326 325 324 324 323 323 323 322 321 321 320 319 317 317 316 315 313 313 313 312 311 310 311 310 309 310 309 307 308 308 306 306 306
285 286 287 287 288 288 289 289 291 293 291 291 289 289 291 293 291 290 293 293 294 296 296 297 298 298 299 301 304 306 308 310 313 317 319 321 322 323 324 324 325 324 325 325 326 327 327 327 327 327 328 328 328 328 327 328 329 332 333 332 330 329 328 327 326 325 325 324 324 323 323 322 321 321 321 319 318 316 315 314 313 312 312 311 311 310 309 308 308 308 309 307 305 307 307 306 307
289 289 289 288 287 287 287 291 291 294 290 288 288 290 292 293 293 290 292 292 293 293 292 292 295 296 297 298 302 304 306 308 312 314 317 320 322 322 323 324 324 325 325 325 324 325 326 326 326 327 327 329 328 327 327 326 325 327 329 330 330 329 329 326 326 326 325 325 325 324 323 323 322 321 321 320 319 317 316 314 313 312 311 311 310 309 308 308 309 308 308 308 306 303 302 303 304
292 291 289 289 288 288 290 290 292 292 290 289 289 291 292 292 291 290 290 292 291 290 291 291 291 294 296 296 299 303 305 307 310 311 314 317 319 321 323 323 324 324 325 324 324 324 325 325 325 325 327 328 327 327 326 326 325 324 325 328 329 330 329 328 326 326 325 325 324 324 323 323 323 322 321 320 320 317 317 316 314 311 311 311 310 311 311 310 310 309 308 306 306 304 302 299 301
290 291 289 288 289 288 290 292 293 292 291 287 288 288 289 290 291 290 290 290 292 292 292 292 292 292 295 296 297 300 304 305 305 306 309 313 316 318 320 322 321 321 323 324 323 324 325 325 324 326 326 327 328 328 327 326 327 327 326 327 327 328 328 327 328 327 326 324 323 323 323 323 324 323 321 321 320 319 317 316 314 313 311 311 311 311 309 307 307 307 308 306 304 306 305 300 301
291 289 288 287 287 289 290 291 292 291 291 286 287 288 290 292 292 289 289 291 293 294 294 295 294 293 293 295 297 297 298 302 304 305 308 312 314 316 318 319 321 323 323 323 324 324 324 324 324 325 325 326 327 328 327 327 327 326 327 324 326 320 324 329 330 328 324 324 324 323 323 323 323 323 323 322 322 320 319 317 315 314 312 311 310 309 310 308 308 309 308 308 302 300 300 300 304
287 287 285 285 288 288 285 289 290 290 288 287 286 286 289 289 287 289 290 291 292 294 295 295 295 295 294 295 297 298 298 300 302 303 305 309 313 315 316 317 320 321 321 322 323 323 324 324 324 325 325 326 327 327 325 328 327 326 324 321 319 321 320 319 325 325 325 324 324 323 323 324 324 324 324 324 323 322 319 318 316 314 313 312 312 312 310 310 308 308 308 308 307 303 300 302 303
288 289 287 287 288 288 287 288 289 289 290 288 286 285 286 285 289 289 290 291 291 293 292 293 293 294 296 295 294 297 299 299 300 301 302 306 309 313 315 317 319 319 321 322 323 323 325 324 325 325 325 325 326 325 325 326 322 318 317 314 313 314 313 321 324 325 327 325 326 325 325 323 322 322 324 324 323 323 321 319 317 315 314 313 313 312 311 311 310 310 309 308 307 308 306 302 302
286 290 290 288 290 289 288 288 287 285 285 285 288 281 281 282 284 287 290 288 290 291 291 292 293 294 294 293 295 296 297 299 300 301 301 304 308 311 314 316 317 319 320 322 323 324 324 324 324 325 325 325 325 325 325 324 323 323 319 319 318 318 320 319 320 322 325 325 326 328 326 324 322 322 323 324 324 322 322 320 318 316 314 313 312 312 313 311 310 309 309 309 308 309 310 306 303
285 287 292 291 290 289 288 287 285 281 280 286 286 282 276 282 284 284 284 285 289 289 290 293 293 294 293 294 295 295 295 296 296 297 298 300 304 308 311 314 317 318 320 321 321 323 324 324 324 325 325 325 325 325 323 322 323 323 322 322 322 321 320 321 323 323 326 327 327 326 327 326 325 324 323 324 324 323 323 321 320 318 317 314 311 312 312 312 311 310 309 309 309 309 308 308 309
284 289 291 292 291 289 288 288 286 281 283 287 282 280 278 281 285 285 285 285 287 288 290 290 292 294 294 294 295 295 295 295 296 297 298 299 302 306 309 312 315 318 319 319 320 321 322 323 323 323 324 323 325 325 323 323 323 323 322 321 321 321 321 321 320 318 318 321 325 326 326 327 327 327 326 325 325 323 322 322 321 320 318 316 312 313 313 313 312 311 309 309 310 309 308 308 309
286 292 293 291 292 291 289 287 284 283 285 280 280 285 282 277 283 285 285 286 286 287 289 290 292 292 293 294 295 295 295 295 296 297 297 298 299 303 308 310 314 316 317 318 319 320 321 321 321 321 323 322 322 322 322 322 322 323 322 322 320 320 321 319 311 311 315 316 323 325 325 325 326 327 327 326 325 325 321 322 322 321 319 318 314 315 314 314 313 312 310 309 309 309 309 309 309
292 294 295 294 292 291 289 285 285 285 280 277 280 282 278 277 281 283 282 285 284 286 290 291 290 291 292 293 294 295 295 294 295 296 298 298 299 301 305 308 310 313 315 315 316 316 318 319 319 319 320 321 321 321 321 321 321 321 321 321 320 320 318 313 311 313 314 316 321 322 323 324 325 325 326 326 325 325 323 322 322 322 321 320 315 316 315 314 313 313 312 310 310 309 309 308 308
295 293 291 289 287 286 284 284 283 284 277 278 280 281 282 277 281 285 286 285 287 290 289 288 288 288 291 292 293 295 295 294 295 295 295 296 295 297 298 305 308 309 310 310 312 313 314 316 317 317 319 319 318 320 320 320 321 320 322 321 320 320 318 316 312 312 314 315 318 320 321 322 323 324 324 323 324 324 323 319 320 320 319 315 314 316 316 315 314 313 313 311 309 309 309 308 306
295 288 286 288 286 284 283 282 283 279 276 278 279 281 281 276 277 282 287 285 284 287 289 291 290 290 289 290 293 294 294 294 294 294 295 295 294 296 295 299 302 304 304 307 308 309 311 313 315 316 317 317 317 318 318 319 320 320 320 320 320 320 318 317 316 316 314 315 317 319 319 320 321 322 322 322 323 324 323 322 319 320 319 319 317 316 315 314 314 313 313 312 311 309 310 308 308
291 289 288 285 280 280 277 279 277 276 277 280 281 283 281 280 282 285 286 286 288 286 289 291 289 289 289 290 291 292 292 291 294 295 294 294 296 297 297 298 297 299 303 305 307 308 310 312 313 314 316 316 316 316 317 318 318 319 319 319 319 318 317 317 317 316 314 314 315 316 317 318 319 319 320 321 322 322 321 321 320 320 319 317 316 316 314 313 313 312 312 311 310 309 309 308 308
287 288 285 283 276 275 275 273 272 271 276 279 280 281 280 281 282 290 291 294 294 293 290 290 290 292 292 292 293 292 292 293 293 294 294 295 296 297 297 298 299 299 300 302 304 306 308 310 311 312 315 315 315 315 316 317 318 318 318 318 318 315 315 315 316 316 314 314 313 314 315 317 318 319 319 320 321 320 320 320 319 319 319 317 315 315 314 313 312 312 311 310 310 310 309 308 307
287 287 288 285 281 276 274 273 275 276 277 278 281 280 276 279 283 284 292 294 294 293 290 286 287 289 290 292 292 292 292 292 292 294 295 296 297 297 297 297 297 298 299 300 301 303 305 308 309 310 312 312 312 314 314 315 316 316 316 316 315 313 315 314 315 315 314 312 311 312 312 312 315 316 317 317 313 316 316 317 318 318 318 318 317 315 313 312 311 310 309 310 309 308 308 308 307
287 288 288 284 284 283 278 278 276 275 276 276 277 278 279 282 284 287 289 289 290 291 290 288 289 289 288 292 294 295 294 294 293 293 295 295 295 295 295 295 295 295 297 298 299 301 302 306 307 310 311 311 310 310 312 313 314 313 312 312 313 312 310 312 311 310 312 312 311 311 311 311 311 311 310 310 311 312 313 315 316 317 317 317 316 316 315 313 311 311 309 308 308 307 307 305 305
287 286 284 284 288 286 279 278 280 276 273 273 274 279 281 282 288 291 290 290 291 290 290 288 289 288 288 291 293 294 294 294 294 294 294 294 293 294 296 295 295 294 295 296 298 299 301 302 303 305 307 305 307 308 310 311 311 311 311 311 311 310 311 311 312 311 311 309 309 309 310 310 309 309 310 309 310 310 311 312 313 314 314 314 314 314 314 312 311 310 309 307 305 303 303 303 303
287 281 285 288 290 286 283 276 275 274 272 274 276 277 278 278 279 286 283 286 288 290 292 290 288 287 288 292 292 293 294 294 293 292 293 294 294 295 296 296 297 298 298 298 298 299 300 301 302 303 304 306 306 307 308 309 309 309 310 309 309 310 311 311 310 310 308 308 307 306 304 307 309 310 310 309 310 309 309 306 310 310 310 311 312 312 311 310 309 307 306 305 305 302 301 299 297
286 284 289 287 280 280 279 278 272 270 270 269 274 276 276 278 283 282 285 285 287 289 288 287 288 288 291 291 292 291 291 292 293 294 295 295 295 296 296 297 297 297 297 298 298 298 298 298 299 301 303 304 305 305 305 306 307 309 310 309 309 309 308 309 307 307 307 309 309 307 307 308 305 305 306 307 307 306 305 305 306 305 304 307 308 308 307 306 305 305 302 302 299 298 298 298 295
288 289 286 285 284 282 278 280 276 276 271 270 270 275 279 281 282 283 288 288 288 288 287 288 289 289 291 292 292 291 291 291 292 294 296 296 295 296 297 298 298 298 297 296 296 296 298 299 298 298 298 299 299 302 303 306 306 307 307 305 305 307 307 307 307 307 307 308 308 307 307 303 306 303 305 306 303 303 301 301 300 301 299 299 300 301 300 301 300 302 301 300 298 297 298 298 296
284 284 283 284 282 283 282 281 279 278 268 267 267 271 275 280 284 286 289 291 291 287 289 289 289 288 288 289 291 291 292 292 293 294 295 295 296 295 295 294 294 296 295 296 297 298 299 298 299 299 301 300 301 303 303 305 304 304 303 305 305 305 305 304 304 305 307 306 305 304 305 306 300 301 298 297 297 299 299 298 298 297 298 296 296 293 292 294 296 298 297 297 295 295 297 297 294
287 286 285 285 282 281 279 279 280 275 276 272 268 277 278 283 286 290 290 290 288 287 288 289 289 290 290 290 289 291 292 293 294 294 292 292 292 293 292 294 294 294 294 295 296 296 296 299 301 301 301 302 301 301 302 302 302 304 303 303 303 301 304 302 303 302 304 305 302 301 301 297 299 296 295 297 296 295 293 294 295 294 293 293 293 297 291 292 293 293 292 292 292 292 294 294 291
Wind_Speed
7 6 4 1 2 3 2 4 1 3 2 2 3 1 2 0 1 2 1 1 3 2 1 4 4 3 2 3 9 7 2 2 2 6 3 1 4 10 8 10 8 8 6 4 3 3 4 6 9 11 12 12 10 11 13 13 12 11 13 14 13 14 13 13 14 14 15 15 16 17 17 17 17 18 17 18 18 17 17 17 18 18 18 19 19 19 19 19 19 20 20 20 20 20 19 19 19
4 5 3 0 1 2 1 2 3 2 4 1 5 1 2 0 2 5 4 3 1 2 1 7 12 14 16 13 9 3 4 4 1 1 3 2 8 7 10 11 11 11 6 4 4 4 4 5 8 9 12 11 10 11 13 12 11 13 14 14 12 12 13 13 14 15 15 16 16 17 17 17 17 17 16 16 17 17 17 18 17 18 19 18 19 20 19 19 19 20 20 20 20 20 19 19 19
3 6 4 5 3 3 1 3 1 1 1 2 3 4 1 3 5 3 3 6 7 7 7 10 9 6 4 3 5 2 1 2 6 3 5 6 12 7 9 9 9 9 8 4 4 4 4 4 7 8 9 8 9 11 12 12 10 10 12 14 14 13 13 13 14 16 16 16 16 16 16 17 17 16 16 16 17 16 17 17 17 17 18 18 18 19 19 19 19 19 19 20 20 19 19 18 18
1 1 2 3 2 4 1 2 3 4 1 3 2 2 1 5 4 3 2 6 8 5 2 3 5 2 5 8 3 4 4 2 1 6 7 9 5 9 9 10 8 7 6 5 5 4 4 5 7 9 10 10 12 12 12 12 11 9 12 12 14 13 13 13 13 13 15 15 15 15 16 16 16 16 16 17 17 16 16 16 17 17 17 18 18 18 18 19 19 19 20 20 20 19 19 19 19
3 1 1 4 3 1 1 1 2 2 1 3 1 3 2 3 6 4 2 2 1 3 3 3 5 4 2 6 0 1 4 2 4 1 3 3 8 9 9 9 8 8 7 5 5 4 3 7 7 8 11 9 11 13 11 11 11 9 8 12 14 13 13 12 12 13 13 13 14 15 15 15 16 17 16 17 16 16 16 16 17 17 17 18 17 18 18 18 19 18 20 19 19 19 19 19 19
3 4 2 1 0 2 3 1 1 2 7 4 2 3 4 5 7 5 3 1 2 4 5 4 5 3 3 2 1 3 5 5 3 3 3 7 11 11 10 9 8 8 6 5 5 4 4 8 7 7 9 9 10 12 11 10 9 9 9 10 14 13 13 11 11 12 14 15 15 15 15 14 15 15 16 16 15 16 17 16 16 16 16 16 18 18 17 17 18 19 19 20 20 19 19 19 19
1 4 3 4 2 4 4 1 3 3 7 7 4 5 9 6 5 8 3 3 2 6 2 4 7 6 5 0 3 1 1 2 3 4 4 9 11 11 11 8 8 8 7 6 5 4 5 8 8 8 7 8 9 9 11 11 10 11 9 10 13 13 13 12 12 12 12 13 13 14 14 14 14 15 15 15 15 15 16 17 17 16 17 16 16 17 17 17 18 18 18 18 18 18 18 18 17
2 1 1 1 1 2 0 2 2 4 3 7 4 10 7 8 6 6 5 3 2 2 2 5 2 6 1 2 3 2 3 0 5 7 10 10 10 11 9 9 9 8 7 6 5 4 8 8 9 8 8 10 9 9 10 11 11 11 9 9 12 13 14 13 13 12 13 15 14 14 14 14 14 14 14 14 14 15 15 15 16 16 16 16 16 16 16 16 17 17 17 16 16 16 16 17 16
3 2 0 4 1 2 1 2 3 3 5 0 3 2 8 7 6 9 4 1 2 3 4 3 4 7 2 3 1 2 1 5 7 11 12 11 12 10 8 9 10 8 7 6 5 4 4 7 9 9 7 8 9 9 10 12 12 12 10 9 10 14 14 13 12 12 11 13 14 14 14 14 14 14 14 14 14 14 14 15 15 15 15 15 15 15 15 16 15 16 15 15 15 14 14 14 15
1 2 1 1 3 3 2 4 1 2 2 2 4 9 7 5 4 4 9 4 4 5 1 3 1 6 4 7 1 1 2 5 11 11 10 12 11 9 9 9 10 11 8 7 6 4 4 9 9 9 8 8 8 9 9 11 11 11 11 9 10 14 13 12 12 12 11 13 12 13 14 14 14 14 14 14 14 14 14 14 14 15 15 15 15 15 15 14 14 14 14 14 13 13 13 14 15
0 4 2 2 1 1 3 4 3 5 1 1 1 1 5 4 5 3 5 7 1 4 2 4 7 8 5 1 1 3 1 7 14 13 11 11 9 10 9 8 10 11 10 8 6 5 5 5 9 8 8 8 7 8 7 8 11 11 11 10 11 12 13 12 12 12 12 13 12 13 14 13 13 13 13 13 13 14 14 13 13 14 14 14 14 14 14 14 13 14 13 13 12 13 13 14 15
1 1 1 2 2 5 5 3 1 5 4 1 2 3 2 4 4 6 4 9 3 4 4 4 5 5 4 1 1 0 3 7 12 10 9 8 8 10 9 7 9 9 11 9 7 5 5 4 5 7 8 7 7 7 5 6 10 9 11 12 12 12 12 12 12 11 12 11 11 11 12 12 13 13 12 11 9 11 13 13 13 13 14 14 14 14 14 13 13 12 12 11 12 13 14 14 14
2 1 5 3 4 2 2 1 4 1 1 4 5 4 3 4 6 8 6 6 5 5 1 4 13 2 2 2 1 0 6 8 7 10 7 7 9 8 8 8 8 9 9 9 8 6 5 4 5 4 5 7 7 7 6 5 7 9 9 11 11 10 11 11 11 12 11 11 10 11 11 12 12 12 13 11 10 9 12 11 12 13 13 13 13 13 13 12 12 12 11 10 11 13 14 15 15
2 4 5 4 1 3 4 2 0 5 5 4 2 2 7 3 3 6 8 7 4 7 1 9 7 6 3 3 1 4 8 7 6 7 6 8 8 8 9 7 8 9 9 9 9 8 6 5 4 4 4 4 3 5 6 6 7 7 8 8 8 9 9 10 10 10 10 10 9 10 10 10 11 11 11 10 9 9 10 10 10 11 12 12 12 13 12 12 11 11 10 9 10 12 13 14 14
1 1 3 1 1 1 1 3 6 6 7 3 3 6 3 3 4 5 11 7 5 1 3 2 4 5 6 9 5 10 10 10 8 6 8 8 8 8 8 8 8 8 8 8 9 9 7 6 5 4 4 4 3 3 3 5 7 6 7 8 8 8 9 10 10 10 10 10 10 10 10 10 10 10 10 9 9 9 10 11 10 9 11 12 12 12 12 11 10 10 9 8 9 10 10 11 12
2 4 2 1 3 3 4 2 1 3 5 5 3 6 5 1 2 7 2 5 3 2 1 4 1 1 6 12 9 16 12 9 8 7 8 9 7 7 8 7 7 8 7 8 9 8 7 7 5 5 5 4 3 3 3 3 6 7 7 8 8 9 9 9 9 9 9 10 10 10 10 9 8 8 10 7 9 9 9 7 8 8 10 11 11 12 11 11 9 8 8 7 8 8 9 9 9
2 3 0 2 5 3 3 2 5 3 3 4 2 5 5 2 0 0 1 1 10 1 3 1 0 2 12 7 5 16 12 10 8 8 9 8 8 7 7 7 6 6 5 8 9 8 8 7 7 6 5 5 4 3 3 3 4 6 6 8 9 9 9 8 9 9 8 9 9 9 9 6 5 5 6 5 7 6 9 10 9 8 8 9 11 11 11 10 8 7 7 7 7 7 6 7 8
2 2 2 2 4 3 4 5 7 2 4 5 5 6 8 5 1 2 4 8 4 3 5 2 4 5 1 1 11 16 13 13 11 12 9 10 8 8 8 8 8 8 7 7 7 8 9 8 9 8 6 6 5 4 3 3 3 4 4 4 4 5 6 7 6 4 6 4 8 6 5 5 5 4 5 5 5 5 7 10 10 10 9 9 9 11 11 9 8 7 6 6 6 5 5 3 4
2 1 2 7 4 5 4 1 4 2 5 9 7 5 7 6 7 3 5 1 4 4 2 2 4 4 6 7 12 15 14 13 13 12 12 14 12 13 11 9 9 9 9 7 7 8 8 8 8 8 7 7 6 5 4 4 3 3 3 3 4 4 4 4 4 4 4 4 4 4 5 5 4 4 4 5 4 6 7 9 10 10 10 9 9 9 9 8 6 6 6 5 5 5 3 3 2
2 4 4 5 6 3 4 3 3 5 1 4 6 5 6 6 5 2 5 7 2 10 6 0 3 4 6 8 12 14 14 14 13 13 12 12 11 13 12 11 10 10 9 8 8 7 8 8 9 8 8 8 7 6 5 5 4 4 4 4 4 4 4 3 3 3 3 4 4 4 4 4 4 4 5 8 7 5 5 8 9 10 9 8 9 6 6 6 5 5 4 3 4 3 2 2 2
2 2 4 3 3 1 2 2 2 4 5 8 8 4 5 5 4 4 7 8 4 4 8 11 11 12 10 12 13 13 14 14 13 11 11 10 10 9 10 11 10 9 8 7 7 9 9 9 9 8 8 8 8 6 6 6 5 5 4 4 4 5 4 4 4 3 3 4 3 4 4 3 4 4 4 5 5 5 4 4 5 5 5 4 5 4 3 2 3 2 1 1 0 1 2 2 2
3 6 5 3 0 1 6 3 2 1 4 4 5 10 7 2 1 5 14 11 10 13 11 4 12 13 15 14 13 12 14 15 15 14 14 13 14 12 8 6 4 5 6 8 9 9 10 9 10 8 8 8 8 8 8 7 6 6 5 5 5 5 5 5 5 4 3 4 3 4 5 4 4 5 4 4 4 5 5 5 5 5 4 4 3 4 3 3 2 2 2 2 1 0 1 2 2
2 3 3 5 3 3 2 3 1 2 2 6 7 5 5 7 2 4 12 11 2 2 7 9 13 16 15 15 15 13 14 16 16 17 15 13 12 10 10 8 9 9 8 8 8 8 9 9 10 9 9 9 9 8 6 7 7 6 6 6 6 6 5 5 5 5 5 4 3 5 6 5 4 5 4 4 5 4 5 5 5 5 5 4 3 5 4 3 3 3 4 4 1 0 1 2 4
3 5 1 3 1 5 1 2 4 1 8 9 2 3 6 6 6 3 7 4 3 4 10 12 12 11 13 14 15 18 17 16 17 15 14 13 12 12 10 10 7 5 6 7 7 8 9 11 11 11 10 10 8 8 8 7 6 6 7 6 6 6 6 6 6 6 5 5 5 6 6 6 6 5 5 5 5 4 5 5 5 5 4 4 4 3 4 3 2 2 3 2 1 0 1 1 0
2 2 1 3 0 3 3 3 2 1 4 0 4 5 6 7 5 5 7 7 3 3 7 10 10 12 12 15 15 14 14 13 13 13 9 7 7 6 5 6 6 7 9 9 7 8 10 10 10 12 11 11 9 9 8 7 7 7 6 7 7 6 6 6 7 5 5 5 6 7 6 6 5 6 6 5 4 5 4 4 5 5 5 5 4 4 4 5 3 3 3 3 2 1 1 2 1
2 4 5 4 3 3 1 1 2 0 1 4 5 3 0 3 2 4 7 7 2 3 9 11 12 13 14 14 15 15 14 15 13 12 15 10 6 8 8 8 8 10 11 10 9 8 8 9 11 12 12 11 9 9 8 7 7 8 8 8 7 7 7 7 6 6 6 6 6 7 7 7 7 7 6 5 6 5 5 4 4 5 5 5 5 5 5 5 5 3 3 2 3 3 3 4 3
2 2 2 5 5 1 0 2 2 3 1 3 7 2 2 2 2 6 3 4 3 7 10 11 14 15 14 12 12 13 14 15 16 13 8 8 9 11 11 9 10 10 9 10 10 9 8 9 10 11 11 11 9 10 9 9 8 8 8 8 7 7 8 6 6 6 6 6 7 7 7 7 7 6 7 6 5 5 5 5 5 5 4 5 5 5 5 5 5 6 5 5 4 3 4 3 3
3 1 2 1 3 3 2 0 3 1 0 2 6 2 1 3 1 7 4 3 5 10 9 12 13 14 13 13 13 12 12 12 10 10 15 14 13 13 13 12 11 9 11 12 10 8 8 10 10 10 11 11 10 10 9 9 9 8 8 7 8 8 7 7 7 7 7 6 6 6 6 6 6 6 7 7 7 6 6 6 6 5 6 5 5 5 6 5 5 5 4 4 4 4 4 3 3
4 3 3 4 2 3 2 4 3 0 1 3 4 3 1 1 7 7 5 5 5 10 11 13 12 11 12 11 11 10 12 11 10 11 15 14 12 10 13 11 11 11 8 9 10 9 11 10 10 10 11 11 11 11 10 9 9 8 8 8 7 8 7 7 7 7 7 7 6 7 7 7 6 7 7 7 7 7 6 6 6 6 6 6 5 5 5 4 3 2 2 1 1 1 1 3 1
0 1 3 4 3 4 7 1 0 3 2 1 2 5 6 11 14 2 4 8 5 7 9 11 10 10 9 10 10 10 8 8 11 14 13 12 11 12 13 12 12 11 9 7 9 12 10 8 8 8 10 12 12 10 9 8 9 8 8 8 7 8 7 7 7 7 7 7 7 8 7 7 7 6 6 6 6 6 6 6 7 6 6 5 5 5 6 5 4 3 4 2 4 3 4 3 3
5 2 3 4 1 4 1 4 4 5 1 2 1 5 7 8 10 6 4 7 12 9 9 10 10 9 9 9 9 10 11 12 15 14 13 12 11 11 12 10 11 11 9 9 13 13 11 10 9 8 10 11 11 11 11 10 9 8 9 8 8 8 8 7 7 6 7 7 7 7 8 7 7 7 7 7 6 6 6 6 6 7 6 5 6 5 5 4 4 5 3 4 3 3 3 4 4
2 3 7 1 6 5 3 2 6 8 1 2 3 3 9 7 7 3 5 7 8 10 9 9 9 9 9 8 10 10 11 10 11 12 13 13 12 11 12 13 12 12 13 13 12 11 12 11 11 10 10 11 12 11 10 10 9 9 8 8 8 8 7 7 7 7 7 7 7 7 7 7 7 7 7 6 6 6 6 6 7 6 5 5 5 4 4 6 5 3 4 5 5 4 2 4 3
3 8 1 5 3 4 3 4 4 1 3 0 5 6 3 6 4 4 3 10 10 9 9 9 9 10 9 9 9 9 8 7 9 12 12 12 11 11 12 13 12 14 13 13 13 12 12 12 12 12 13 13 12 11 10 8 9 9 9 9 9 8 8 8 7 6 6 7 6 6 6 7 6 7 7 7 7 6 6 6 6 6 5 6 5 5 6 6 5 5 4 5 5 6 5 4 4
7 3 5 3 6 2 3 2 2 4 4 5 3 3 6 3 5 3 1 6 8 9 9 9 9 8 9 8 8 9 10 10 13 14 14 13 11 13 12 13 13 12 12 13 14 14 14 12 12 13 12 12 11 11 10 9 9 9 8 8 8 9 9 8 7 7 7 7 7 7 7 7 7 6 7 7 7 7 7 7 5 5 5 6 6 5 6 5 5 6 6 4 5 4 5 5 6
7 7 7 3 1 4 5 3 3 6 3 6 4 5 10 11 6 3 1 2 6 9 9 9 10 9 8 8 8 9 10 12 15 14 14 14 13 13 12 12 12 11 10 12 13 13 12 11 10 12 12 11 10 9 9 8 8 7 7 8 9 9 8 8 7 8 7 7 7 7 7 7 7 7 7 7 7 7 6 6 6 5 6 6 6 6 5 5 4 5 7 6 4 5 5 5 6
5 5 7 2 4 3 4 5 1 10 5 5 6 9 13 14 11 3 2 2 6 6 3 5 7 7 7 8 9 9 10 14 13 11 12 12 13 14 13 11 11 11 11 11 12 12 12 11 10 10 11 12 9 8 8 8 7 8 9 7 9 10 9 8 7 8 7 8 8 7 7 7 7 7 7 7 7 7 7 7 7 5 6 6 6 6 6 6 8 7 7 6 5 3 1 3 3
0 4 6 9 5 4 3 3 1 1 2 7 8 10 11 9 7 5 3 0 2 4 7 7 6 7 8 9 11 13 12 16 12 10 10 13 15 14 13 11 12 11 12 12 12 12 13 14 12 14 12 11 10 10 9 10 10 8 7 11 12 9 9 8 8 8 8 8 8 7 8 8 8 8 8 7 8 7 7 7 6 5 6 6 7 8 9 9 7 6 4 3 6 5 4 2 3
2 0 3 7 7 9 4 2 0 0 5 3 3 5 9 9 8 6 1 3 7 10 10 8 9 9 9 11 12 12 15 6 2 5 6 8 10 10 10 10 10 12 12 12 13 14 14 14 14 14 10 11 12 13 11 11 11 12 11 11 10 9 8 9 10 8 9 7 8 8 8 8 9 9 8 8 8 8 7 7 7 7 7 7 8 7 5 5 5 4 4 3 3 7 6 4 4
3 3 2 4 6 2 3 2 2 0 3 7 1 5 11 11 10 3 4 7 7 10 11 13 13 11 10 11 12 12 7 9 8 9 8 9 11 11 10 10 11 15 15 16 15 14 13 13 12 13 12 13 13 13 12 13 11 10 11 8 9 5 6 8 8 7 6 7 8 9 9 9 9 9 9 9 9 8 8 8 8 7 7 7 6 5 6 6 6 7 7 6 4 1 2 2 6
5 2 3 4 4 6 4 3 1 1 2 1 1 2 8 6 4 7 8 8 7 10 11 12 9 12 13 15 15 13 13 13 12 13 13 12 12 11 10 11 13 11 11 11 12 15 13 13 12 13 13 13 13 13 13 13 12 9 7 5 5 8 6 5 5 5 7 8 10 9 9 10 10 9 9 9 9 8 9 9 7 7 7 7 8 8 7 8 6 6 6 7 5 4 3 5 5
3 5 4 2 2 6 5 4 1 1 1 2 1 4 7 4 5 5 6 9 6 6 5 7 7 8 10 5 4 9 15 15 15 13 11 10 11 13 15 14 11 12 14 14 15 14 12 15 15 15 13 14 12 13 14 11 7 5 5 2 3 3 1 5 7 8 9 10 9 10 11 8 8 9 9 10 9 9 8 8 8 8 7 8 7 7 7 8 9 9 10 8 8 8 7 4 4
3 5 8 7 4 5 0 2 5 1 3 1 2 1 5 3 5 9 8 1 5 7 5 9 11 11 8 9 13 12 12 11 14 16 16 15 15 14 11 12 14 15 15 15 14 14 13 12 13 13 11 11 12 13 14 11 11 11 9 9 9 9 9 9 12 15 12 11 14 9 7 9 9 8 8 9 9 9 9 9 8 8 8 7 7 7 7 6 7 7 7 9 9 8 7 5 4
4 5 7 4 6 5 6 5 3 1 3 2 1 8 5 5 2 4 4 2 9 4 5 11 10 10 9 12 14 13 13 12 9 8 7 8 12 11 13 15 16 15 16 11 11 13 13 12 13 14 13 11 12 12 12 11 10 11 14 15 14 14 14 12 10 7 9 9 6 7 9 8 9 9 8 8 9 9 8 8 8 8 8 8 7 7 7 8 7 8 7 7 8 8 6 7 7
5 2 5 4 5 6 6 6 4 1 0 1 3 2 3 5 7 5 0 3 7 8 8 10 10 11 12 13 14 13 12 10 11 14 12 12 13 15 17 18 15 18 14 10 13 11 14 15 12 13 11 11 11 10 12 13 13 13 13 13 13 13 14 13 10 7 5 5 7 8 7 8 8 9 9 8 8 8 8 8 8 8 8 8 8 8 8 7 6 5 6 7 6 6 7 8 7
2 4 8 7 7 6 7 5 4 0 0 5 1 1 1 4 7 5 1 3 5 7 8 9 12 12 12 12 12 12 12 12 13 13 14 15 15 15 14 13 16 14 11 13 13 13 12 11 12 10 12 11 9 10 12 13 13 13 13 12 12 12 11 9 4 5 5 5 8 7 8 7 7 8 8 8 8 8 8 8 8 8 8 8 8 7 8 7 9 8 7 7 8 8 7 7 6
3 4 4 5 6 5 4 3 4 0 2 6 4 2 3 7 6 5 2 1 5 7 10 10 9 10 11 12 14 14 11 9 9 12 12 12 12 13 13 10 7 12 11 9 8 7 8 8 9 10 12 10 10 10 11 12 13 11 12 12 14 12 8 5 5 6 6 6 9 9 8 8 7 7 8 8 7 7 8 8 8 9 9 9 8 8 8 8 7 7 8 9 9 10 7 7 8
5 7 6 4 6 3 2 5 2 2 4 7 7 5 4 5 5 7 5 5 8 9 7 7 7 6 8 8 9 8 8 8 9 10 10 9 6 6 6 10 11 7 6 6 8 8 7 8 10 11 12 9 9 11 11 13 12 12 13 13 14 13 11 8 7 7 7 7 9 9 9 8 6 8 7 7 8 7 8 7 8 7 6 5 6 7 9 10 9 9 8 9 8 9 7 8 8
10 2 3 6 2 5 3 2 3 3 7 4 2 4 4 7 3 6 8 4 3 6 7 9 9 7 7 6 8 9 8 8 8 8 10 9 6 6 6 9 8 7 5 8 7 6 7 8 8 11 10 11 9 10 11 13 12 13 12 12 13 13 11 10 12 12 10 10 10 9 6 5 7 7 7 8 8 9 8 8 7 6 7 7 7 6 6 6 6 6 6 7 8 8 7 7 8
4 7 8 8 3 2 4 0 4 6 6 1 1 1 1 8 7 7 6 7 8 7 9 10 7 7 6 7 8 6 5 6 8 9 9 7 9 10 9 9 6 7 11 10 10 9 9 9 11 12 14 11 11 11 13 13 12 13 14 14 13 10 11 11 11 11 8 9 9 8 7 8 6 6 8 8 9 10 8 7 6 7 7 5 5 5 6 6 6 6 7 7 6 7 8 8 8
6 11 8 8 4 5 7 3 1 3 5 4 1 1 4 3 6 13 16 17 14 12 8 8 8 9 8 7 7 4 4 5 7 7 7 8 9 8 9 9 10 10 10 11 10 9 9 9 10 13 15 11 10 10 12 12 14 14 12 12 11 9 10 10 10 10 8 8 7 9 9 9 8 9 7 9 6 7 7 7 7 6 6 5 5 5 5 5 5 6 6 7 7 7 5 7 7
6 4 11 8 6 5 8 5 9 8 6 1 3 2 6 5 5 4 10 10 10 8 5 5 6 7 7 6 6 6 5 5 4 5 7 9 10 8 8 8 7 8 8 8 8 9 8 9 10 12 12 11 11 12 11 13 12 11 10 9 8 7 9 9 9 8 8 8 7 8 7 6 8 7 8 6 4 7 7 7 7 7 7 7 8 7 6 5 5 5 5 7 6 5 6 7 7
3 2 5 7 10 5 4 5 3 3 2 0 1 6 4 5 3 8 6 7 6 7 8 4 6 5 3 4 5 6 6 5 4 5 6 6 5 4 4 5 4 4 5 6 7 8 9 11 10 12 14 11 10 10 10 10 10 8 7 8 9 8 7 6 6 6 6 7 7 7 7 7 6 5 5 5 6 7 7 7 7 8 7 7 7 7 7 6 6 6 6 5 7 5 7 7 7
4 5 8 5 3 7 3 3 0 4 3 7 1 5 5 8 8 9 4 1 7 6 6 5 6 5 3 5 6 6 6 5 6 6 6 5 4 5 4 4 4 4 3 5 6 6 8 8 8 9 8 6 8 9 9 8 8 8 9 9 8 8 9 9 9 8 8 6 5 6 6 6 5 5 6 5 6 6 6 7 7 7 7 7 6 6 7 7 6 7 7 7 7 5 6 7 6
7 4 8 2 2 4 6 6 1 1 5 6 2 6 4 1 5 4 2 2 4 5 10 5 3 3 5 8 7 8 7 7 6 5 6 6 5 5 4 4 4 6 7 6 8 7 7 7 8 9 8 10 8 8 9 9 9 10 9 9 8 9 9 8 7 7 6 6 5 5 4 5 6 6 6 6 6 6 6 6 6 6 6 6 7 6 6 7 6 6 7 7 7 6 7 5 5
3 6 2 9 5 5 2 3 3 3 4 3 2 2 4 6 7 2 4 3 5 7 4 5 6 5 7 8 9 7 6 7 8 7 6 7 6 5 5 6 5 5 5 6 5 4 4 5 5 6 9 8 7 7 6 6 7 7 7 9 8 7 6 5 5 5 5 6 7 6 6 6 4 4 5 5 5 5 5 5 6 6 5 6 6 6 6 6 6 6 6 6 5 5 6 6 5
0 1 1 1 2 2 4 7 4 5 5 1 7 1 9 7 7 6 9 6 8 7 4 6 7 6 7 7 7 6 5 5 6 6 5 5 4 5 6 6 6 7 5 5 4 4 5 5 5 5 4 4 4 5 6 7 7 6 5 4 4 5 5 5 5 6 6 6 6 5 5 5 6 4 5 5 5 6 6 6 6 6 5 5 5 5 5 5 5 6 6 6 5 5 6 7 5
1 2 4 0 0 2 3 1 4 5 4 3 2 5 7 7 8 7 9 10 12 5 4 6 4 5 6 6 6 4 4 5 6 5 5 4 4 5 5 4 3 1 1 3 4 6 6 5 6 6 7 6 6 6 6 6 5 5 4 5 5 5 5 4 4 5 5 5 5 5 5 5 4 5 5 5 5 6 6 6 5 5 6 5 5 5 4 4 5 5 5 6 4 5 7 6 4
8 9 10 10 7 5 7 10 3 2 2 5 2 12 6 7 4 11 13 10 7 7 6 7 3 3 3 4 4 4 5 4 5 5 5 5 5 4 3 1 1 2 3 4 4 4 5 6 7 6 5 6 5 4 4 4 4 4 5 5 5 4 5 4 5 5 5 5 5 5 5 4 5 4 5 5 5 5 4 4 5 4 4 4 4 4 4 4 4 4 5 4 4 4 5 5 3
Wind_Direction
336 333 318 335 82 93 65 2 82 310 52 248 308 315 195 188 214 68 116 339 57 299 317 19 46 37 154 175 129 124 57 137 207 133 215 225 135 131 133 134 130 124 132 145 138 117 117 127 128 135 139 131 115 115 118 116 111 111 108 107 111 107 102 94 94 96 98 96 95 97 97 96 94 91 89 90 87 87 88 88 91 91 88 90 90 91 92 93 91 91 89 87 87 87 86 86 87
326 327 324 309 144 77 270 116 94 352 42 22 261 120 221 349 70 159 142 124 183 129 120 92 75 79 83 108 125 113 35 359 206 147 71 103 113 122 144 142 141 140 139 140 127 117 118 131 138 136 130 123 123 115 121 116 114 114 111 108 108 105 105 105 101 98 97 94 97 97 95 96 95 92 96 92 89 91 93 93 92 93 92 92 92 93 92 90 91 91 89 87 86 86 88 89 88
335 353 6 34 29 72 55 38 285 51 70 307 275 208 320 121 167 228 185 127 133 136 126 98 98 82 79 75 30 45 229 338 78 89 110 141 124 164 149 139 138 135 136 137 126 124 126 134 141 130 127 123 126 121 123 123 117 119 112 111 105 101 102 103 106 103 102 102 101 97 96 93 92 93 94 95 92 88 88 90 92 94 95 92 92 93 93 94 93 92 88 86 84 86 85 85 85
13 33 93 60 269 29 66 24 94 130 199 214 300 285 177 167 197 206 199 155 151 153 173 37 52 301 109 65 124 91 76 106 5 135 133 164 160 147 145 136 135 130 126 131 129 129 135 144 133 135 139 139 130 121 122 126 122 109 108 110 110 111 109 106 104 105 108 101 96 96 96 97 97 97 96 97 94 92 90 87 87 88 92 95 95 94 96 95 92 91 90 86 86 87 87 85 84
27 333 80 92 106 357 95 189 145 95 244 206 185 275 236 190 163 172 220 242 222 133 84 120 78 354 67 120 161 140 198 115 142 180 109 105 126 141 139 136 138 134 134 135 128 133 139 129 131 142 134 134 131 115 122 129 126 116 109 120 116 109 105 107 111 109 100 99 100 100 98 100 104 101 98 96 96 95 96 97 98 98 97 94 93 97 99 96 92 91 87 84 86 87 87 89 88
61 52 20 87 325 182 52 24 341 225 221 159 156 227 197 195 158 170 175 236 38 70 115 65 146 165 28 343 173 107 136 141 175 89 131 149 143 141 142 141 138 136 137 130 131 131 134 128 134 135 134 133 133 124 123 125 129 122 97 99 111 109 108 108 106 104 107 104 103 99 94 94 94 96 98 96 94 95 91 90 86 83 86 94 99 100 100 98 93 89 87 86 86 89 90 89 89
360 38 357 23 4 56 176 142 221 209 275 164 204 186 176 197 186 128 151 86 355 54 1 119 113 95 77 308 28 76 323 182 104 156 141 150 140 143 146 146 140 136 138 136 131 133 139 141 142 139 134 129 131 130 122 126 131 125 112 111 119 114 111 113 111 106 106 108 105 100 102 102 98 101 98 96 96 98 95 96 95 96 97 97 96 98 99 97 94 90 85 84 83 81 85 91 93
60 111 290 112 237 45 182 208 231 156 270 166 217 158 186 178 179 135 164 98 183 94 48 119 126 95 244 17 148 269 2 127 134 125 129 139 142 147 150 145 135 138 139 136 133 139 146 143 132 133 139 140 137 130 122 122 130 130 122 116 121 114 114 114 112 111 112 107 107 106 106 103 102 101 100 99 98 97 97 97 96 94 92 91 92 95 98 98 92 90 87 81 78 82 88 90 93
359 84 3 82 200 34 60 234 263 241 272 17 127 207 173 180 183 136 129 190 67 97 134 146 188 90 233 46 46 278 345 104 108 130 138 143 147 155 150 145 138 141 141 138 137 144 141 139 135 140 143 137 137 133 131 125 132 138 126 114 123 120 119 116 116 115 114 114 109 111 109 106 107 105 104 102 104 103 101 98 98 97 94 93 95 97 99 100 96 90 84 78 77 78 81 88 97
25 90 280 155 124 234 357 303 44 243 249 171 172 174 174 185 196 156 137 105 160 122 95 112 113 114 134 104 107 17 142 123 125 130 145 150 151 151 147 149 143 140 142 140 142 142 144 144 142 143 141 138 137 133 131 125 130 135 126 119 128 121 120 120 115 113 111 108 114 115 110 107 109 108 104 105 106 105 102 102 101 100 100 102 103 102 102 102 98 94 84 80 78 77 80 87 102
40 8 147 104 36 195 211 267 266 312 299 43 298 237 191 159 147 148 142 139 153 135 189 128 50 119 108 130 234 253 253 139 137 154 157 153 149 146 146 148 145 143 144 147 143 142 143 141 142 143 143 144 134 133 140 135 129 136 133 128 117 121 122 121 118 113 113 93 96 114 113 112 109 107 107 104 103 102 103 105 101 102 101 100 103 101 100 102 102 95 83 80 79 80 82 87 99
19 99 21 112 189 169 227 190 278 263 296 98 223 183 218 173 131 130 143 129 185 121 174 147 173 140 76 109 229 354 114 157 150 154 151 143 145 145 143 146 146 148 144 145 141 142 139 140 136 144 144 141 132 131 137 133 128 133 140 130 120 122 124 123 121 117 107 99 101 106 110 110 107 103 93 84 90 98 102 101 103 102 104 104 102 102 98 99 104 96 86 83 82 82 82 87 96
122 122 84 104 227 153 199 178 254 220 317 242 177 206 143 152 184 158 160 133 145 120 188 226 142 91 118 177 256 228 151 179 155 149 139 139 144 139 138 143 147 142 139 142 142 143 142 138 138 138 140 134 133 137 135 110 116 133 136 135 128 124 123 123 119 109 107 104 99 101 102 99 100 95 89 82 72 86 102 105 105 107 105 105 105 102 98 99 102 97 89 86 83 83 83 84 85
114 180 132 216 76 134 139 202 74 149 253 237 255 137 154 165 232 165 132 123 181 147 242 142 126 123 70 96 182 192 190 184 173 146 124 132 135 137 141 142 145 144 146 148 147 149 146 141 136 131 130 126 129 131 127 114 100 108 131 134 129 124 120 112 104 105 103 100 100 103 104 103 97 93 89 84 78 72 72 87 101 105 108 106 108 105 103 101 103 100 95 89 84 84 86 84 82
192 148 82 122 313 92 255 141 202 182 227 192 204 134 161 284 139 172 149 137 202 195 95 46 165 118 210 164 196 196 187 184 172 142 122 123 130 140 140 143 147 148 151 152 149 151 153 147 138 134 132 127 130 124 116 116 112 110 113 123 121 113 110 110 109 107 108 107 105 105 103 101 99 96 94 91 85 76 75 78 85 98 109 110 109 107 103 103 103 103 98 92 86 83 80 77 73
152 84 79 158 252 170 265 189 71 125 253 182 230 139 100 356 149 147 225 144 156 6 118 179 85 212 162 174 195 180 176 169 166 131 117 122 128 137 140 146 150 156 157 155 155 156 158 154 145 141 137 135 133 121 112 118 122 119 118 118 115 115 116 116 115 112 111 111 111 108 105 101 98 97 95 87 83 80 84 90 92 103 108 110 109 111 108 104 101 100 102 93 86 80 73 66 62
65 78 182 39 253 155 254 155 140 213 237 233 229 168 147 171 233 27 287 56 128 153 59 351 263 44 174 197 178 154 161 157 141 131 115 128 139 147 145 149 154 157 162 166 160 161 159 160 154 151 147 141 136 127 118 120 128 121 117 118 119 122 123 122 119 115 112 115 113 113 107 105 107 103 96 98 88 91 95 93 88 81 92 104 110 108 103 100 98 101 102 97 88 80 66 63 61
62 164 116 238 203 149 212 176 185 226 143 215 185 194 129 146 155 171 78 34 63 70 77 339 15 5 200 316 145 149 153 156 158 146 146 145 157 155 159 164 164 172 170 170 173 162 159 164 165 160 152 151 146 139 132 127 129 120 120 122 122 123 125 125 126 131 127 124 123 117 114 115 114 112 111 106 104 99 97 103 103 98 91 96 107 109 106 104 101 102 107 98 82 69 62 55 47
129 117 120 225 175 236 160 203 225 154 234 188 179 162 161 182 137 200 108 174 138 84 16 30 59 16 69 112 135 143 157 162 165 166 159 160 168 166 167 167 173 167 174 175 174 171 168 165 166 167 163 156 151 145 143 142 136 130 135 134 133 137 144 141 147 143 140 130 122 124 125 126 126 125 128 126 116 111 112 108 107 107 106 103 104 107 110 104 101 99 95 69 50 40 45 36 27
222 127 225 243 210 241 209 183 238 218 230 160 146 203 149 186 139 150 150 166 184 160 153 329 139 138 131 136 145 150 161 170 173 171 172 170 173 169 169 172 176 179 176 177 171 176 170 170 173 172 168 162 156 155 151 152 151 149 150 149 147 154 157 161 163 165 150 139 139 129 131 136 129 123 123 122 116 111 107 106 109 110 110 111 112 107 108 112 108 102 89 55 28 21 19 24 31
260 121 197 228 209 3 277 170 237 262 188 190 169 141 145 195 176 143 145 116 231 243 205 168 179 159 152 154 153 157 165 172 180 181 177 177 182 180 177 178 176 174 173 167 168 177 177 176 173 174 171 166 160 159 159 165 160 153 162 163 163 166 171 176 180 178 168 150 156 142 142 139 135 135 138 132 128 130 127 128 128 128 130 129 124 123 124 122 116 126 64 55 25 20 10 346 4
111 208 212 197 103 188 261 263 228 299 116 141 136 142 197 115 77 136 158 165 199 204 202 199 154 157 153 158 163 161 170 176 184 185 187 183 183 182 174 177 163 163 161 174 181 174 180 179 176 174 173 173 171 168 172 165 159 166 171 177 171 179 177 183 188 186 182 175 165 149 146 142 148 143 149 149 149 150 150 158 158 154 154 161 155 146 159 155 166 172 163 182 221 24 9 335 319
230 302 236 235 212 238 278 320 20 77 126 148 163 200 106 157 174 189 180 190 213 169 155 164 162 163 162 154 156 168 175 183 187 191 186 186 188 186 181 177 174 179 176 184 180 179 178 180 180 172 176 176 176 172 166 165 177 174 172 176 174 188 186 184 198 193 188 184 170 156 155 163 163 159 162 165 165 167 168 171 172 173 166 168 182 153 174 187 172 173 174 194 180 11 339 325 303
195 244 356 310 200 215 260 280 13 52 153 193 189 105 147 152 176 188 196 229 220 181 153 163 162 152 149 157 172 172 180 185 193 194 193 191 186 186 179 179 185 172 174 182 183 181 182 184 181 175 177 176 176 171 170 178 179 174 179 176 189 188 182 196 200 197 185 179 173 169 165 167 168 167 177 175 181 177 183 184 181 180 176 184 181 170 167 188 197 181 172 182 184 300 287 311 351
162 250 297 286 61 243 298 302 337 73 177 287 119 144 202 177 178 108 224 233 238 172 139 143 150 154 164 165 174 178 181 187 192 196 196 198 193 180 182 180 179 177 186 191 183 182 188 183 180 179 177 179 175 170 176 182 179 180 176 183 191 190 193 197 201 192 186 179 175 165 164 169 176 171 177 188 174 192 187 187 187 196 184 191 177 198 172 184 193 180 171 190 186 213 225 201 185
85 268 288 275 271 300 293 330 310 266 99 127 127 214 309 232 300 188 212 222 206 114 141 148 154 161 172 179 177 177 182 189 191 192 198 189 180 184 199 191 184 190 193 188 186 188 186 183 183 183 178 181 175 171 181 181 182 182 186 189 192 186 201 197 200 196 193 176 181 171 177 174 176 176 182 186 180 197 190 194 200 203 193 190 184 193 203 175 189 184 180 187 202 199 186 209 179
204 241 297 274 273 218 312 178 281 300 138 181 157 196 206 322 72 251 227 214 116 122 152 160 159 175 181 180 183 185 183 188 191 192 184 191 193 196 200 198 197 197 185 193 193 189 182 181 187 185 181 181 175 179 181 186 183 188 188 192 188 193 199 194 197 200 185 189 184 177 180 180 174 179 180 185 196 195 188 190 209 207 205 194 190 207 188 189 191 185 187 190 196 193 214 197 180
219 170 342 351 335 307 298 50 258 334 315 170 132 125 299 317 55 229 216 169 149 135 156 168 176 179 184 184 184 188 192 194 189 178 191 192 199 197 197 199 200 192 193 198 194 185 182 186 184 186 182 181 180 184 182 186 188 190 189 191 194 195 193 195 196 197 190 191 185 184 179 185 180 184 182 187 192 199 194 193 206 199 214 205 195 202 186 195 192 198 187 187 194 184 209 202 193
237 164 273 286 348 332 259 195 217 135 245 150 145 74 278 267 227 220 211 143 149 148 164 174 185 188 187 186 186 188 197 188 187 195 202 201 198 195 202 201 197 199 203 195 191 187 193 189 182 185 182 182 185 186 186 188 187 189 189 193 197 195 194 193 196 198 192 191 185 187 187 184 186 187 192 187 192 194 194 192 198 204 206 198 195 196 183 195 201 184 214 188 193 167 196 258 132
47 152 179 310 351 313 251 183 350 143 260 164 149 210 247 232 234 216 215 152 137 146 168 181 185 186 192 189 190 198 198 189 197 204 203 202 199 199 202 199 197 200 195 196 190 197 194 192 186 178 184 184 188 188 186 186 189 188 189 192 195 196 197 194 197 198 193 190 188 189 190 187 187 193 190 201 190 188 188 188 189 200 199 187 186 175 181 186 195 187 219 177 215 187 202 215 180
213 207 141 215 148 264 277 180 169 157 227 140 81 209 263 252 250 219 194 168 155 170 183 186 189 191 190 193 195 200 205 200 201 205 207 204 202 202 204 198 199 199 194 198 200 198 191 192 187 189 184 186 186 188 188 189 187 185 186 191 193 194 198 199 195 196 194 194 190 194 192 188 190 188 191 190 198 193 191 195 195 199 184 178 176 186 176 190 184 200 181 198 217 218 205 199 195
205 161 213 239 182 271 301 128 166 167 270 118 112 258 245 259 269 264 197 179 173 176 187 192 193 195 195 195 201 205 210 208 215 215 211 206 201 203 202 203 197 199 199 200 200 195 197 194 189 193 187 187 188 186 188 187 187 188 187 189 192 196 196 200 199 197 196 194 193 199 199 192 191 191 187 185 188 196 195 199 208 191 182 174 184 179 174 184 196 193 204 181 192 235 211 234 223
245 216 253 220 166 238 350 218 204 208 121 351 165 214 310 295 272 295 219 181 192 182 192 195 197 197 197 200 202 208 211 222 225 221 216 210 209 206 204 205 199 199 200 198 195 196 198 196 191 193 192 194 191 186 183 185 184 189 190 191 194 195 201 204 203 202 203 198 195 199 201 201 198 193 191 187 185 194 202 207 207 193 180 181 181 184 191 191 180 192 212 215 190 204 206 233 244
232 206 205 204 187 198 247 299 240 216 161 193 225 207 233 236 301 313 146 192 188 195 196 201 201 199 203 203 206 207 210 210 215 217 215 208 210 208 207 207 203 198 199 197 196 192 196 193 193 195 193 194 193 189 184 183 187 186 190 191 194 200 205 204 204 201 209 205 196 199 196 202 203 196 194 190 193 196 199 204 199 189 184 183 184 182 202 189 193 183 204 220 207 197 217 220 238
188 180 203 255 276 203 204 165 233 144 239 183 198 240 261 271 274 307 210 159 190 208 198 198 202 206 205 207 208 214 214 213 221 216 209 205 208 210 209 207 207 199 196 197 196 196 191 191 191 195 191 192 193 188 183 179 178 188 190 190 199 207 209 207 202 207 208 208 207 198 196 201 206 201 196 190 194 196 200 205 193 193 183 183 178 187 194 195 199 200 199 213 218 214 205 215 224
191 171 191 176 172 215 211 232 274 174 169 212 185 211 239 248 263 284 265 174 185 220 236 237 226 217 212 211 215 216 219 225 225 217 207 205 207 206 207 205 204 201 196 195 197 194 192 190 191 194 195 191 187 185 177 177 177 186 194 200 206 208 207 207 210 211 203 211 210 201 201 203 203 203 198 194 195 194 197 199 200 187 186 176 180 185 201 196 201 201 214 198 201 235 266 222 201
340 174 167 223 226 271 277 264 257 165 109 219 206 227 237 253 257 257 256 56 210 240 239 229 226 220 216 216 215 217 218 224 219 211 205 205 207 208 207 203 204 202 201 194 193 196 194 191 188 197 196 186 183 187 188 185 187 191 199 202 210 204 205 203 211 213 209 211 206 205 204 205 204 203 201 192 200 197 199 197 194 190 186 184 187 202 202 203 202 197 193 182 183 202 239 206 186
247 79 174 213 210 230 233 222 12 288 163 267 233 250 260 257 266 258 249 167 230 220 227 234 227 220 220 218 224 223 224 247 258 234 226 220 221 216 209 207 202 203 211 200 195 197 197 195 193 196 189 191 194 193 191 194 197 196 195 205 200 198 199 203 212 211 212 206 206 207 207 206 204 203 200 197 198 195 198 196 193 192 186 197 204 210 203 195 185 186 169 197 213 193 217 180 189
192 209 200 214 245 260 297 288 294 315 156 256 158 204 251 249 250 251 185 202 227 222 211 217 211 216 219 222 227 230 237 237 226 230 218 213 213 210 204 207 209 209 206 205 202 198 200 199 198 195 193 193 199 196 191 200 201 200 196 199 192 197 211 210 215 211 205 208 209 208 207 207 205 206 200 199 198 199 199 196 199 193 194 191 196 208 202 199 191 193 185 191 209 257 219 199 194
194 159 124 201 232 165 255 278 147 3 129 260 170 226 274 286 274 243 225 202 233 228 218 227 212 214 215 217 212 214 222 227 225 221 216 212 208 206 204 207 209 207 211 211 209 206 202 202 198 197 197 197 197 198 200 203 200 198 204 186 183 178 191 197 208 207 205 209 217 209 211 204 203 204 199 199 203 200 197 199 195 193 196 192 195 200 200 207 191 193 193 207 177 206 215 233 210
209 185 189 210 175 218 160 208 105 6 26 79 77 356 301 281 262 281 255 228 255 258 246 253 251 240 237 259 264 228 221 216 222 223 222 214 211 210 206 207 201 206 209 207 204 205 204 203 200 199 198 198 198 197 200 196 180 178 177 126 127 142 79 173 203 218 210 210 214 212 214 197 201 201 198 199 199 201 198 199 195 195 192 195 196 202 201 206 201 199 193 194 195 208 222 216 216
252 222 190 199 188 166 145 125 109 37 286 314 169 332 290 293 267 236 261 12 239 246 237 246 237 237 232 232 231 229 230 225 219 217 211 208 209 213 212 207 206 212 211 210 204 206 204 202 202 204 201 199 199 198 195 186 187 186 177 185 192 200 206 197 204 207 205 205 212 211 205 202 201 203 200 200 201 198 199 199 196 192 194 191 196 202 204 202 207 201 198 196 209 215 222 203 216
196 253 188 194 140 122 132 136 91 135 184 286 48 186 264 324 297 250 280 283 256 259 213 245 242 245 229 227 230 227 223 226 235 243 236 220 221 213 214 210 212 212 217 205 205 208 207 204 202 202 201 200 200 197 189 187 191 195 196 201 203 203 209 217 218 212 209 214 208 205 207 202 206 204 205 202 202 201 200 198 198 197 195 193 191 196 204 204 202 204 199 207 213 207 199 235 227
232 241 157 129 110 132 175 154 161 189 232 328 45 126 187 287 288 262 274 286 277 290 266 254 248 237 230 228 229 228 225 220 218 223 221 218 215 208 211 212 210 215 211 199 209 206 206 207 200 201 202 203 201 195 190 192 195 199 202 207 208 210 211 218 206 206 195 192 202 209 200 204 203 206 205 204 202 198 199 201 199 198 198 198 186 201 208 203 200 203 199 211 215 204 204 219 234
214 184 158 168 173 186 158 144 159 193 97 265 321 275 219 255 267 304 322 310 303 280 255 252 248 240 239 237 235 233 226 219 212 217 219 217 213 216 220 215 216 216 206 206 207 206 206 205 204 202 206 202 201 194 194 198 202 201 204 206 212 218 216 218 186 175 185 186 202 206 206 206 204 206 206 204 202 200 196 203 201 203 203 202 192 201 208 203 203 195 195 204 210 213 209 218 228
254 116 91 79 67 68 119 102 111 6 110 251 239 202 205 277 272 320 331 255 270 266 268 258 240 238 234 229 234 231 227 226 228 229 228 224 220 219 217 222 222 218 212 212 213 205 208 203 206 203 210 202 198 199 198 201 204 202 206 209 213 215 210 204 181 188 191 187 206 210 209 208 206 206 210 209 205 205 202 204 210 212 210 203 192 202 201 205 209 207 201 206 210 214 206 205 220
128 115 79 65 50 51 28 75 113 103 247 250 230 230 174 274 254 213 204 220 203 234 269 278 277 269 256 247 248 247 239 230 229 234 239 239 241 243 227 219 222 218 212 205 207 204 196 198 203 208 212 201 200 203 198 204 202 205 210 210 213 214 206 197 193 204 194 193 210 212 208 211 202 208 200 207 208 207 210 204 208 213 211 209 202 201 208 206 205 202 201 206 210 210 207 208 223
140 89 125 82 354 20 27 335 45 196 258 263 247 215 182 208 288 275 233 258 227 212 235 261 278 271 264 256 243 236 227 223 225 229 241 238 259 249 219 228 223 214 198 209 210 200 199 200 197 210 212 206 200 202 202 207 204 210 215 213 215 214 203 201 205 209 200 202 209 215 206 201 210 205 201 202 207 206 209 211 209 212 217 207 205 198 201 202 204 205 206 206 212 213 218 213 221
106 113 118 154 221 55 237 17 244 224 216 241 8 166 324 251 227 242 257 249 255 217 216 229 243 270 282 281 268 255 247 238 222 223 228 228 222 220 216 224 211 206 206 203 203 199 201 201 201 205 214 205 202 199 205 206 206 211 212 214 218 210 208 207 209 212 201 203 203 207 196 208 201 204 206 206 207 199 199 207 206 209 210 211 210 201 207 203 207 208 211 212 212 213 213 213 219
135 158 153 161 161 174 213 243 325 319 287 272 261 294 265 247 283 246 242 250 242 243 228 243 248 260 271 276 278 280 268 228 228 227 226 224 221 218 215 212 209 209 205 200 198 197 200 204 205 208 218 205 205 203 207 207 212 212 211 214 213 201 208 205 209 208 203 203 196 201 201 204 205 212 206 214 203 195 199 204 204 212 212 195 192 202 197 197 195 202 208 216 221 221 207 216 225
205 121 163 182 145 165 198 179 198 214 207 298 271 102 232 135 241 234 241 249 272 277 258 237 249 266 279 278 282 288 287 265 234 225 221 219 221 214 213 211 213 211 204 199 195 201 195 205 204 212 218 213 205 208 206 212 214 211 211 210 205 196 203 201 206 203 200 199 198 198 202 198 207 210 210 207 184 197 203 200 203 213 212 206 191 194 193 192 194 203 208 215 220 206 212 215 222
211 174 84 152 210 129 175 208 147 184 191 283 214 209 189 178 248 282 233 264 273 273 280 255 278 291 314 322 284 259 256 265 263 256 257 250 241 237 237 229 223 216 210 202 201 196 198 206 204 210 213 210 207 208 212 211 212 208 205 203 206 200 199 197 201 203 207 200 197 195 199 199 204 196 200 186 203 194 200 203 201 208 211 212 207 204 203 204 204 209 217 215 225 205 216 217 219
210 112 200 213 146 115 97 47 129 100 51 250 170 310 293 299 317 286 309 295 285 292 269 278 276 266 307 281 264 263 265 268 266 253 253 265 273 254 229 221 215 209 210 212 213 207 208 204 205 212 217 211 207 207 208 203 205 200 208 204 199 198 196 199 200 200 202 195 190 198 198 202 197 198 200 195 195 202 202 201 202 205 207 210 209 205 203 204 207 213 219 220 225 210 214 221 217
115 189 219 142 101 114 146 205 358 161 195 256 88 218 292 9 263 316 345 354 290 273 269 274 258 275 268 252 257 251 251 253 262 265 261 254 248 250 247 234 221 213 208 205 210 205 203 203 202 205 206 209 209 200 203 201 200 203 202 201 199 199 199 202 197 196 185 182 199 197 193 200 210 206 199 201 200 200 204 202 204 209 211 210 210 207 203 203 202 212 216 218 216 202 215 225 222
154 192 210 144 218 228 292 121 223 174 238 268 292 262 260 191 237 345 273 255 270 270 285 322 282 239 237 249 258 267 267 277 267 262 262 261 251 244 228 226 225 221 221 220 223 210 213 216 213 208 211 211 204 200 200 204 199 201 197 198 195 195 196 196 194 182 174 191 201 197 200 210 207 201 202 205 204 206 205 209 206 213 208 212 212 209 204 206 200 213 214 218 212 197 213 224 222
149 56 73 90 110 190 145 203 167 123 242 129 286 45 239 201 212 217 268 254 237 240 301 258 256 234 220 236 257 268 279 270 279 275 260 258 260 237 222 216 217 217 215 215 206 197 215 216 208 218 224 211 199 199 195 201 202 196 196 183 193 189 188 186 184 178 188 200 203 198 207 208 213 194 207 205 201 203 204 206 211 208 208 209 208 210 199 204 201 213 211 215 210 201 216 224 221
187 127 206 255 3 232 111 91 145 181 183 181 206 282 259 246 211 181 216 243 265 225 228 267 251 238 236 240 250 273 279 285 280 268 271 270 253 246 240 242 250 249 205 185 187 198 206 199 210 207 204 207 206 205 195 207 182 193 178 188 187 180 187 178 178 188 192 200 204 203 204 211 183 205 194 193 195 200 197 199 195 197 195 195 195 200 197 191 200 214 217 215 208 202 218 229 212
186 173 195 180 127 133 173 241 48 113 154 234 145 255 259 260 177 198 209 231 231 232 204 244 270 267 265 286 287 257 279 280 273 275 258 260 267 265 275 275 219 184 200 197 208 197 202 204 208 204 208 212 207 205 199 188 181 180 187 186 188 185 179 175 182 188 200 202 203 201 196 161 185 198 168 176 182 180 173 171 174 180 184 181 184 185 182 179 198 213 231 215 207 203 217 228 203